Wind_Speed
30 30 30 29 29 26 24 29 28 25 21 18 18 18 18 20 23 26 28 27 27 27 22 22 25 25 24 23 21 21 22 22 21 19 18 19 18 17 16 18 19 21 24 26 25 24 25 23 20
32 33 32 31 31 26 24 30 28 26 24 19 17 17 18 20 25 28 28 27 28 26 23 23 23 22 25 23 19 18 19 20 20 21 21 19 19 17 16 16 17 19 22 25 26 26 25 23 21
32 30 31 32 29 22 26 32 29 28 26 19 17 15 18 21 23 26 28 28 27 24 23 23 22 22 24 23 19 16 18 20 22 21 19 18 19 18 17 16 18 20 21 20 24 25 25 23 22
30 30 31 33 26 21 26 31 31 30 26 21 17 15 17 21 22 25 28 28 27 23 23 22 22 23 24 23 18 17 18 19 21 21 22 22 24 22 20 15 17 22 25 25 20 23 24 25 25
31 30 31 29 23 19 26 32 31 30 27 23 21 14 16 21 19 22 26 27 25 24 21 22 22 24 25 23 19 19 20 20 19 19 21 23 25 23 25 18 16 21 26 26 26 23 24 26 29
32 31 31 27 21 22 27 32 32 28 26 25 20 18 15 19 16 19 23 26 26 27 21 23 23 24 26 21 19 19 20 21 21 20 21 22 24 22 22 24 24 21 23 20 27 31 29 28 31
34 31 33 29 21 24 26 31 35 30 28 30 20 20 16 19 17 18 24 25 26 25 22 22 24 26 27 20 19 21 22 22 21 22 23 23 21 23 32 29 23 30 27 29 25 32 34 32 32
35 36 35 29 22 22 29 32 39 35 31 29 27 20 20 19 18 16 24 23 26 25 22 20 23 25 26 21 19 21 21 21 21 21 22 22 21 22 30 25 25 28 31 36 28 29 35 34 33
37 41 32 25 22 22 29 35 40 39 34 32 29 21 25 21 17 18 23 22 25 26 23 20 22 22 23 22 20 21 20 19 19 20 21 21 24 27 29 30 30 22 24 23 24 30 31 33 34
42 41 33 25 25 27 34 38 42 41 35 35 31 25 28 18 16 18 21 22 25 26 21 20 21 22 21 23 21 20 19 19 18 19 21 18 22 24 30 31 30 27 24 22 27 30 32 30 26
43 42 37 30 28 31 36 39 44 42 37 37 36 27 31 19 17 18 21 22 26 27 21 20 20 21 21 21 22 22 20 20 20 20 18 21 23 29 29 27 24 27 25 27 29 33 30 29 23
48 46 42 36 33 35 37 41 41 42 40 40 37 32 34 21 19 20 21 23 26 29 23 21 19 21 21 21 22 24 22 20 21 21 23 23 27 30 27 27 25 25 26 30 35 29 28 29 30
49 47 44 40 38 37 38 38 42 41 42 43 39 36 35 26 23 22 22 24 27 30 25 22 19 19 23 22 22 24 23 21 22 23 24 25 30 30 29 29 28 28 34 30 35 29 29 30 26
49 47 43 40 38 39 38 37 39 42 45 43 39 38 37 34 28 24 22 27 27 31 29 25 20 20 23 22 22 22 24 21 24 25 26 28 30 30 27 26 33 32 41 32 41 27 28 28 28
53 52 48 44 40 38 38 34 38 42 44 44 41 39 39 39 30 24 23 27 27 30 33 27 23 22 23 23 22 22 24 23 27 27 27 31 23 24 24 27 35 39 41 36 41 29 26 28 30
53 53 51 45 43 39 38 37 35 41 41 43 45 45 42 42 35 30 26 27 26 29 34 26 24 23 24 25 21 22 24 25 27 28 29 29 25 21 27 26 34 39 44 39 38 30 31 28 32
56 55 53 48 41 42 41 39 37 41 44 45 46 47 45 44 41 35 30 28 25 29 33 27 25 23 26 26 21 21 24 25 25 27 28 27 27 25 26 30 33 43 45 38 34 32 29 28 29
56 53 50 47 45 45 42 39 40 42 45 46 49 49 48 46 44 41 34 30 27 30 32 27 26 24 25 28 21 19 22 22 24 25 25 20 25 16 25 32 35 45 42 36 27 24 32 32 32
51 52 50 50 50 48 44 41 42 45 45 45 49 51 50 48 45 44 39 31 30 30 30 27 26 26 26 27 23 18 22 20 23 24 20 18 19 19 22 35 43 44 40 38 32 31 29 29 29
53 52 52 51 50 51 49 46 44 45 44 47 49 49 47 47 45 43 40 33 31 30 29 29 28 27 27 28 23 18 21 19 20 21 15 15 16 22 26 38 42 41 35 33 30 33 29 30 29
46 47 47 47 47 48 50 49 47 47 46 44 46 44 45 45 43 40 37 34 33 29 29 30 30 28 27 28 23 16 19 17 18 16 12 11 4 20 26 32 40 33 33 34 30 31 35 29 27
35 33 36 40 43 43 44 46 44 44 41 42 44 42 41 41 42 41 38 36 32 29 30 31 31 31 29 27 24 15 16 16 14 11 10 12 6 8 29 31 30 31 33 31 30 30 31 34 30
30 28 30 33 35 37 37 43 46 39 34 39 41 41 39 38 38 35 39 36 34 32 29 33 32 31 31 27 25 15 15 15 12 9 7 10 10 10 15 23 34 28 28 27 34 28 32 30 34
25 27 27 28 27 31 30 36 43 33 33 36 39 39 38 36 35 35 39 38 38 34 31 35 35 34 34 28 25 16 15 13 14 10 9 8 11 11 7 19 24 31 28 26 27 36 31 28 29
24 24 24 26 26 28 28 31 32 36 31 31 36 39 38 37 35 35 36 39 39 34 30 37 39 35 37 29 28 18 17 12 13 12 11 10 8 10 12 11 13 17 23 22 24 26 26 26 27
24 26 25 24 24 24 23 27 31 34 33 31 31 33 34 34 35 35 38 42 39 36 34 38 40 38 38 31 30 22 18 12 13 13 12 11 11 11 11 12 12 16 20 22 26 25 24 23 21
27 24 23 23 22 21 21 24 27 30 33 34 32 29 30 32 35 37 40 42 41 38 34 40 40 40 40 33 32 26 20 15 15 15 14 13 13 13 13 13 14 15 18 23 27 28 28 28 28
24 22 23 25 23 22 21 21 24 26 25 26 26 27 29 32 36 38 44 41 40 40 37 39 40 41 39 33 32 29 23 19 18 16 15 14 14 15 15 16 15 15 15 15 17 21 23 25 28
24 25 26 21 22 23 21 17 19 21 20 20 20 24 27 32 33 42 42 40 41 42 40 39 41 41 37 32 32 31 27 23 20 17 14 12 13 14 15 16 16 17 15 14 14 16 17 17 18
23 23 23 24 24 21 22 13 18 18 20 17 20 17 26 30 32 37 40 42 45 47 44 42 41 39 37 33 32 30 29 24 22 20 18 17 14 13 13 14 14 16 17 17 17 18 20 20 21
Wind_Direction
265 265 268 268 266 267 271 273 280 286 288 293 302 306 312 310 308 310 311 310 310 305 305 305 309 311 310 307 300 288 278 273 272 274 274 272 271 267 263 260 262 256 248 244 241 239 237 230 223
269 269 266 265 263 267 271 271 278 285 286 292 299 303 304 309 308 314 316 308 301 300 299 306 313 313 317 315 305 286 278 275 273 273 268 268 271 266 258 255 251 249 248 241 236 234 237 231 221
267 265 265 265 264 271 265 271 273 275 280 283 289 296 305 305 307 316 310 300 292 295 298 309 314 322 320 319 310 298 284 278 275 274 272 271 274 272 264 255 252 251 249 246 242 234 227 228 219
262 262 264 267 268 265 265 266 270 275 281 282 285 298 301 300 308 316 305 298 293 296 298 310 315 321 320 318 305 290 288 282 276 272 270 272 273 268 259 255 256 251 255 246 234 238 231 222 214
258 262 264 268 265 259 258 264 270 272 278 285 286 291 296 298 308 313 305 304 303 298 299 309 315 318 320 313 306 294 288 284 280 274 271 269 268 267 257 249 259 262 248 240 236 228 224 221 209
257 264 265 267 257 242 243 260 271 273 279 278 284 276 289 291 299 306 303 304 303 301 298 303 314 319 319 312 302 300 294 285 280 273 272 275 270 261 254 238 246 252 251 267 245 244 217 219 210
257 263 265 263 251 239 243 256 265 269 267 272 277 276 282 285 295 291 297 302 303 303 298 309 317 319 321 311 299 299 294 286 279 273 271 270 264 254 264 253 242 264 253 268 266 251 221 216 213
259 261 262 264 252 239 243 251 261 263 266 273 276 280 276 275 283 278 288 301 303 306 300 307 313 316 323 311 302 302 297 290 284 277 272 267 263 266 268 261 255 250 258 251 261 253 212 210 214
258 258 265 269 257 240 238 248 255 261 263 267 272 271 269 270 278 278 287 296 302 306 298 304 308 314 324 309 302 305 305 302 289 280 274 274 278 269 263 256 252 257 245 256 250 240 216 206 210
255 260 267 266 249 232 232 238 249 259 264 267 266 262 266 272 268 270 283 293 297 297 294 298 301 310 320 312 296 302 302 299 295 295 289 285 290 285 263 257 255 248 241 235 228 214 197 207 204
256 260 262 253 246 238 233 237 246 259 262 263 265 264 266 265 260 266 274 283 287 291 292 288 298 302 312 313 288 291 298 295 295 294 294 286 285 286 269 248 239 234 231 217 212 192 196 201 210
255 256 256 249 241 237 235 238 246 257 260 261 264 265 266 267 260 263 268 274 282 284 288 287 295 300 306 310 289 281 295 299 298 299 297 294 290 295 263 238 231 226 216 213 197 200 206 209 222
254 254 252 249 244 241 238 243 245 254 257 256 259 262 265 261 258 261 259 268 273 278 282 285 292 299 302 313 290 278 286 296 299 298 297 293 298 294 257 235 222 226 201 202 206 203 213 215 219
252 254 252 249 246 246 245 246 248 249 252 258 260 259 262 260 257 261 249 259 266 273 279 284 290 298 300 306 289 274 278 292 298 299 300 295 292 292 238 234 225 224 199 209 206 208 212 215 214
248 252 253 251 246 246 248 249 251 246 243 250 254 253 255 257 253 253 242 253 261 271 276 281 290 297 300 303 287 275 273 288 297 300 300 298 279 274 227 236 229 216 197 195 200 211 213 219 217
245 248 251 250 249 245 245 251 246 248 247 246 250 255 257 259 257 249 246 252 253 263 273 281 288 294 299 301 284 275 272 283 292 299 303 299 279 266 239 235 218 211 197 196 204 217 223 221 218
243 245 249 251 249 250 247 253 242 242 245 244 244 247 252 255 258 253 247 251 253 258 272 280 286 289 295 298 286 279 274 282 295 300 304 298 285 274 232 227 208 200 197 200 208 215 217 210 216
243 244 246 247 246 244 245 249 251 239 242 242 244 245 247 250 255 259 255 254 254 255 266 274 281 285 291 295 287 281 279 285 296 303 305 293 301 224 212 205 200 194 197 199 211 207 206 210 213
240 239 240 242 244 245 246 247 250 248 242 242 243 245 247 248 252 258 258 253 250 254 262 270 275 279 286 291 286 277 281 286 298 305 305 292 309 199 201 196 191 194 196 203 214 208 215 221 219
235 235 237 240 243 245 247 253 251 250 248 245 244 244 247 249 251 254 256 251 244 248 256 265 268 273 280 287 284 274 280 285 297 304 297 301 290 220 216 198 197 196 199 219 220 217 221 224 224
235 236 239 244 245 245 245 246 248 250 248 249 251 248 246 247 247 246 246 243 241 247 255 261 267 270 275 283 280 273 272 279 293 302 284 291 298 189 198 198 199 184 203 205 204 210 215 220 230
232 239 240 243 245 247 246 244 242 247 252 253 247 245 242 242 242 240 238 238 239 244 251 259 266 269 270 278 277 266 262 275 286 293 278 255 272 265 214 210 214 210 201 206 200 209 222 232 238
223 232 238 244 247 248 246 245 246 243 249 250 247 242 244 239 235 235 235 233 232 236 245 254 261 269 269 273 271 255 250 273 275 269 269 245 249 246 243 236 223 219 227 225 230 234 235 241 245
229 234 239 243 246 249 247 245 245 256 247 238 245 244 244 242 236 238 230 227 225 226 237 250 258 264 269 266 266 241 245 262 269 258 256 240 238 242 253 226 232 231 229 234 245 243 233 248 258
227 231 236 241 245 252 251 249 255 256 258 243 240 242 244 243 238 237 232 227 224 223 233 250 257 263 265 262 260 233 238 251 256 251 249 254 233 224 229 229 231 234 220 245 238 237 255 260 262
230 231 235 240 242 250 257 262 253 259 263 257 241 234 236 240 239 237 234 226 219 217 228 244 251 255 259 256 256 231 231 242 247 242 241 238 244 240 226 230 232 240 249 245 243 253 256 264 262
226 227 229 239 249 254 261 266 266 260 259 258 253 243 234 238 238 235 231 228 217 215 222 235 240 247 252 250 252 231 225 236 247 238 231 233 237 244 250 240 234 241 248 243 245 248 252 256 254
220 222 231 236 245 259 263 260 264 261 259 253 252 253 248 238 237 232 228 224 217 216 217 225 233 242 244 246 249 237 222 228 238 242 235 230 230 230 233 238 244 252 252 247 238 239 245 250 251
218 224 229 238 247 260 268 274 269 260 251 251 247 255 261 257 233 229 226 219 215 211 210 220 229 239 242 244 245 237 226 225 236 243 244 242 241 238 237 236 237 240 242 244 244 246 247 251 255
220 224 232 237 247 263 276 287 285 275 255 246 247 267 254 249 233 222 217 207 209 205 206 212 226 236 240 238 240 238 234 232 236 242 248 249 251 257 260 259 255 250 249 249 250 253 256 257 258
Height
5829 5830 5831 5831 5834 5833 5833 5830 5829 5832 5833 5833 5833 5833 5833 5832 5830 5831 5827 5825 5822 5820 5820 5820 5819 5817 5815 5814 5813 5812 5811 5811 5812 5813 5814 5815 5816 5818 5819 5819 5821 5823 5825 5827 5830 5833 5836 5840 5843
5824 5825 5826 5826 5827 5828 5829 5826 5825 5826 5828 5828 5829 5829 5829 5828 5825 5824 5823 5821 5819 5818 5817 5817 5815 5813 5811 5809 5808 5807 5807 5808 5809 5809 5809 5811 5811 5813 5814 5815 5817 5819 5820 5822 5825 5828 5833 5837 5840
5818 5819 5820 5820 5822 5825 5824 5820 5821 5821 5823 5824 5824 5826 5826 5825 5823 5822 5821 5818 5816 5816 5814 5812 5811 5809 5807 5805 5804 5804 5804 5804 5804 5805 5806 5807 5807 5808 5809 5811 5812 5813 5815 5819 5822 5825 5829 5833 5836
5812 5813 5814 5814 5819 5820 5818 5816 5815 5815 5818 5820 5819 5822 5822 5821 5820 5819 5818 5815 5814 5812 5811 5809 5807 5805 5803 5802 5801 5801 5800 5800 5799 5800 5802 5803 5804 5806 5807 5807 5808 5809 5810 5813 5817 5820 5825 5828 5831
5805 5806 5807 5810 5814 5816 5813 5810 5809 5810 5812 5814 5814 5817 5817 5816 5816 5814 5814 5811 5809 5808 5807 5806 5804 5802 5800 5798 5797 5796 5796 5795 5795 5796 5797 5798 5799 5801 5801 5803 5804 5804 5805 5807 5810 5816 5820 5824 5826
5798 5801 5801 5804 5808 5808 5808 5805 5802 5804 5807 5808 5810 5810 5813 5812 5812 5811 5809 5807 5805 5804 5804 5803 5801 5799 5797 5795 5793 5792 5792 5791 5791 5792 5792 5793 5794 5796 5796 5797 5800 5802 5800 5803 5806 5808 5813 5820 5822
5791 5793 5793 5797 5802 5802 5803 5800 5797 5799 5802 5801 5806 5805 5808 5806 5807 5807 5804 5803 5802 5801 5800 5799 5797 5796 5794 5792 5790 5788 5787 5786 5787 5787 5788 5788 5789 5791 5791 5789 5794 5797 5797 5798 5802 5804 5807 5814 5819
5784 5784 5785 5791 5795 5797 5796 5795 5791 5792 5794 5796 5797 5799 5800 5800 5801 5802 5799 5798 5797 5797 5795 5794 5793 5791 5790 5789 5787 5784 5782 5782 5782 5783 5783 5784 5784 5785 5784 5784 5789 5792 5792 5792 5796 5799 5801 5809 5814
5775 5774 5779 5785 5789 5791 5790 5788 5785 5785 5787 5788 5791 5794 5793 5794 5795 5796 5795 5794 5793 5793 5791 5790 5789 5787 5785 5786 5784 5781 5778 5778 5777 5777 5778 5779 5778 5779 5779 5781 5784 5787 5787 5787 5791 5793 5797 5805 5810
5766 5768 5773 5779 5780 5781 5780 5780 5778 5777 5781 5782 5786 5788 5785 5789 5791 5791 5790 5789 5788 5788 5787 5787 5785 5783 5780 5780 5781 5778 5776 5773 5773 5772 5772 5772 5771 5770 5771 5773 5777 5780 5784 5785 5786 5790 5794 5802 5807
5758 5759 5764 5769 5771 5772 5772 5773 5770 5770 5773 5776 5779 5782 5778 5784 5786 5786 5785 5785 5784 5783 5784 5783 5781 5778 5776 5774 5776 5775 5772 5770 5769 5769 5769 5768 5767 5766 5765 5767 5771 5774 5777 5781 5783 5786 5791 5798 5802
5745 5748 5753 5758 5760 5761 5764 5765 5764 5763 5767 5768 5771 5773 5772 5778 5780 5780 5780 5780 5779 5777 5778 5777 5776 5774 5772 5770 5769 5770 5768 5766 5764 5763 5762 5762 5760 5758 5759 5761 5765 5768 5771 5776 5779 5783 5788 5794 5798
5734 5738 5741 5745 5749 5751 5753 5756 5758 5757 5757 5762 5764 5765 5765 5770 5773 5773 5775 5775 5775 5772 5772 5772 5772 5769 5768 5766 5763 5763 5763 5761 5759 5758 5757 5756 5754 5752 5751 5755 5759 5762 5767 5768 5776 5780 5785 5791 5795
5725 5727 5731 5734 5738 5740 5744 5749 5750 5751 5752 5754 5757 5757 5758 5760 5765 5768 5771 5770 5769 5767 5766 5767 5766 5764 5762 5761 5759 5758 5757 5757 5754 5752 5750 5748 5746 5745 5745 5749 5752 5755 5761 5764 5772 5775 5781 5786 5790
5712 5716 5721 5725 5728 5731 5735 5740 5741 5745 5745 5745 5748 5749 5749 5751 5758 5762 5764 5765 5764 5764 5761 5762 5761 5759 5757 5756 5754 5752 5752 5752 5749 5747 5745 5742 5739 5737 5739 5743 5746 5750 5757 5761 5767 5771 5776 5780 5785
5700 5705 5708 5713 5717 5722 5725 5730 5735 5735 5738 5739 5739 5740 5741 5744 5748 5753 5755 5758 5758 5757 5755 5757 5756 5755 5753 5751 5750 5748 5747 5746 5744 5741 5738 5735 5732 5732 5733 5736 5739 5745 5753 5759 5765 5767 5772 5776 5780
5687 5693 5697 5701 5708 5711 5714 5718 5723 5725 5726 5728 5728 5730 5732 5736 5737 5743 5747 5751 5751 5751 5750 5751 5751 5749 5748 5746 5744 5743 5742 5741 5739 5735 5732 5728 5725 5723 5726 5729 5735 5741 5749 5756 5760 5763 5767 5772 5776
5674 5682 5688 5692 5694 5698 5704 5706 5709 5714 5715 5717 5719 5721 5724 5726 5729 5733 5738 5743 5744 5744 5743 5745 5745 5744 5743 5741 5739 5738 5737 5735 5734 5731 5727 5724 5719 5717 5720 5726 5732 5739 5747 5752 5756 5759 5763 5766 5771
5663 5668 5674 5678 5681 5685 5693 5698 5699 5700 5705 5708 5710 5711 5715 5718 5723 5726 5729 5734 5736 5736 5737 5739 5739 5738 5738 5736 5735 5733 5732 5730 5728 5726 5723 5720 5716 5716 5719 5724 5730 5738 5745 5750 5753 5756 5759 5765 5769
5648 5655 5662 5666 5670 5674 5682 5689 5691 5690 5695 5697 5700 5704 5707 5710 5714 5718 5722 5726 5728 5728 5729 5731 5732 5733 5733 5731 5730 5728 5728 5727 5725 5722 5719 5717 5714 5715 5718 5725 5730 5736 5744 5749 5751 5755 5759 5765 5765
5638 5646 5652 5656 5660 5666 5670 5679 5680 5682 5684 5687 5692 5696 5698 5701 5704 5707 5712 5717 5719 5721 5722 5725 5726 5728 5727 5726 5726 5723 5723 5723 5722 5719 5717 5716 5714 5715 5719 5724 5729 5734 5740 5744 5749 5752 5758 5761 5763
5631 5638 5642 5647 5650 5656 5662 5666 5671 5674 5675 5677 5682 5683 5688 5692 5695 5698 5702 5707 5712 5713 5714 5717 5719 5722 5722 5721 5722 5719 5720 5719 5718 5717 5716 5715 5716 5717 5720 5724 5728 5732 5735 5740 5745 5749 5753 5755 5758
5625 5629 5634 5639 5643 5647 5654 5656 5658 5666 5665 5668 5671 5674 5678 5683 5686 5689 5694 5698 5702 5704 5707 5709 5712 5716 5717 5717 5717 5715 5716 5715 5715 5714 5715 5714 5715 5716 5717 5719 5725 5729 5733 5737 5741 5744 5747 5750 5752
5618 5623 5629 5633 5636 5640 5643 5648 5648 5653 5657 5661 5663 5666 5670 5673 5676 5679 5683 5686 5691 5695 5700 5702 5705 5709 5712 5712 5712 5710 5712 5711 5711 5710 5713 5713 5712 5713 5714 5716 5721 5725 5729 5732 5734 5738 5741 5742 5744
5613 5619 5623 5627 5630 5634 5636 5640 5642 5640 5646 5652 5654 5656 5659 5662 5665 5668 5673 5678 5684 5688 5694 5696 5698 5702 5705 5707 5707 5706 5707 5708 5708 5707 5708 5710 5711 5713 5713 5714 5717 5719 5722 5726 5729 5732 5734 5735 5737
5609 5613 5617 5620 5625 5628 5631 5632 5634 5633 5633 5636 5641 5643 5646 5649 5653 5657 5662 5669 5676 5679 5684 5688 5692 5696 5699 5701 5701 5702 5702 5703 5705 5705 5705 5706 5708 5709 5711 5712 5713 5716 5719 5722 5724 5726 5727 5729 5731
5602 5608 5613 5616 5620 5623 5626 5628 5628 5626 5625 5625 5628 5631 5633 5636 5641 5646 5652 5659 5667 5671 5676 5681 5686 5689 5691 5695 5696 5696 5697 5699 5702 5702 5703 5704 5705 5707 5708 5711 5712 5714 5716 5717 5719 5721 5724 5725 5726
5599 5604 5608 5610 5614 5618 5621 5622 5620 5619 5618 5616 5617 5619 5622 5625 5629 5635 5642 5650 5658 5663 5667 5672 5677 5680 5684 5687 5690 5691 5692 5694 5697 5699 5700 5701 5702 5705 5707 5708 5709 5710 5712 5713 5714 5716 5717 5719 5720
5596 5598 5602 5608 5612 5612 5614 5616 5613 5611 5610 5609 5609 5611 5614 5616 5620 5624 5630 5638 5647 5653 5659 5664 5668 5673 5678 5681 5683 5686 5686 5689 5692 5695 5697 5699 5700 5702 5703 5705 5706 5708 5709 5710 5712 5713 5714 5716 5716
5591 5595 5600 5603 5606 5607 5606 5612 5607 5605 5604 5604 5604 5607 5606 5607 5609 5614 5619 5626 5634 5641 5648 5654 5660 5666 5671 5675 5676 5680 5682 5684 5687 5690 5693 5695 5697 5699 5701 5703 5704 5704 5705 5706 5707 5709 5710 5711 5712